Temp
-14 -14 -12 -13 -13 -13 -12 -12 -12 -12 -12 -12 -11 -11 -11 -11 -10 -10 -10 -10 -9 -10 -10 -9 -10 -10 -9 -10 -10 -10 -10 -9 -9 -9 -10 -10 -10 -10 -10 -10 -10 -10 -10 -10
-16 -13 -14 -14 -14 -13 -13 -12 -12 -12 -12 -12 -12 -11 -11 -10 -10 -10 -10 -10 -9 -10 -10 -10 -10 -10 -10 -10 -10 -10 -10 -10 -10 -10 -10 -10 -10 -10 -10 -10 -10 -10 -10 -10
-17 -15 -15 -14 -14 -14 -13 -13 -13 -13 -13 -13 -12 -11 -11 -10 -10 -10 -10 -10 -10 -10 -10 -10 -10 -10 -10 -10 -10 -10 -10 -10 -10 -10 -10 -10 -10 -10 -10 -10 -10 -10 -10 -10
-16 -15 -15 -15 -14 -14 -14 -14 -14 -14 -13 -13 -13 -10 -10 -10 -10 -10 -9 -10 -10 -10 -10 -10 -11 -11 -11 -10 -10 -10 -10 -10 -10 -10 -10 -10 -10 -10 -10 -10 -10 -10 -10 -11
-15 -16 -16 -16 -16 -16 -15 -15 -15 -14 -14 -14 -12 -12 -8 -9 -10 -10 -11 -10 -10 -11 -10 -10 -11 -11 -11 -11 -11 -11 -11 -11 -11 -11 -10 -10 -10 -10 -10 -10 -10 -10 -10 -11
-17 -17 -16 -16 -16 -17 -16 -16 -15 -15 -15 -14 -13 -13 -8 -9 -10 -11 -11 -11 -11 -11 -11 -11 -11 -11 -11 -11 -11 -11 -11 -11 -11 -11 -11 -10 -10 -10 -10 -10 -11 -11 -11 -11
-17 -17 -17 -17 -17 -16 -17 -17 -16 -16 -15 -14 -14 -14 -9 -9 -10 -11 -11 -11 -11 -11 -11 -11 -11 -11 -11 -11 -11 -11 -11 -11 -11 -11 -11 -11 -11 -11 -11 -11 -11 -11 -11 -11
-17 -17 -17 -17 -17 -16 -17 -17 -17 -16 -16 -16 -16 -12 -10 -11 -12 -12 -12 -12 -12 -12 -12 -12 -12 -12 -12 -12 -12 -12 -12 -11 -11 -11 -11 -11 -11 -11 -11 -11 -11 -11 -11 -11
-17 -17 -17 -17 -17 -17 -17 -17 -17 -17 -17 -17 -16 -13 -12 -13 -13 -14 -13 -13 -13 -12 -12 -12 -12 -13 -12 -12 -12 -12 -12 -12 -12 -12 -12 -11 -11 -12 -12 -12 -12 -12 -12 -12
-17 -17 -18 -18 -18 -18 -18 -18 -18 -17 -17 -17 -15 -15 -14 -14 -14 -14 -14 -14 -13 -13 -13 -13 -13 -13 -13 -13 -13 -12 -12 -12 -12 -12 -12 -13 -12 -12 -12 -13 -12 -13 -13 -13
-18 -17 -17 -18 -17 -17 -18 -18 -18 -19 -18 -17 -16 -15 -14 -15 -14 -14 -15 -14 -14 -14 -14 -14 -14 -14 -14 -14 -14 -13 -13 -13 -13 -13 -13 -13 -13 -13 -13 -13 -13 -14 -14 -14
-19 -19 -18 -18 -18 -19 -19 -19 -19 -19 -18 -18 -18 -14 -14 -14 -15 -15 -15 -15 -16 -15 -15 -15 -15 -15 -15 -15 -14 -14 -14 -14 -14 -14 -14 -14 -13 -13 -14 -14 -14 -14 -14 -15
-20 -20 -20 -19 -18 -18 -18 -18 -19 -19 -20 -19 -19 -14 -15 -16 -16 -16 -16 -16 -16 -16 -16 -16 -16 -15 -15 -15 -15 -15 -14 -15 -15 -15 -14 -14 -14 -15 -15 -15 -15 -15 -16 -16
-22 -21 -20 -19 -19 -20 -20 -20 -21 -21 -21 -19 -20 -15 -15 -16 -16 -16 -17 -17 -17 -17 -17 -17 -17 -16 -16 -16 -16 -16 -16 -15 -15 -15 -15 -15 -15 -15 -16 -16 -16 -17 -17 -18
-22 -21 -21 -20 -20 -21 -20 -21 -21 -21 -20 -20 -19 -19 -15 -16 -17 -17 -18 -18 -18 -18 -18 -18 -18 -18 -18 -17 -17 -17 -17 -17 -17 -16 -16 -16 -16 -17 -17 -18 -19 -19 -19 -20
-22 -22 -21 -21 -21 -21 -21 -22 -21 -21 -21 -21 -20 -20 -16 -18 -18 -17 -17 -18 -19 -19 -19 -19 -18 -18 -18 -18 -18 -18 -18 -18 -17 -17 -17 -17 -18 -18 -19 -20 -20 -21 -21 -21
-23 -22 -22 -21 -21 -22 -22 -21 -21 -21 -21 -21 -21 -20 -20 -19 -19 -18 -19 -20 -20 -19 -20 -20 -19 -18 -18 -18 -19 -18 -19 -19 -19 -19 -19 -19 -19 -20 -21 -21 -21 -21 -22 -22
-22 -22 -23 -22 -21 -21 -22 -22 -22 -22 -22 -22 -22 -22 -20 -20 -20 -19 -20 -20 -20 -21 -21 -21 -20 -20 -20 -20 -20 -20 -21 -21 -20 -20 -20 -20 -21 -21 -21 -21 -22 -22 -22 -22
-23 -23 -23 -23 -22 -22 -22 -22 -22 -22 -22 -22 -22 -22 -22 -22 -22 -21 -20 -21 -22 -22 -22 -21 -22 -22 -22 -22 -22 -22 -22 -22 -21 -20 -21 -21 -21 -21 -22 -22 -22 -22 -22 -22
-23 -23 -23 -23 -23 -23 -22 -22 -22 -23 -23 -21 -22 -23 -23 -23 -23 -22 -22 -22 -22 -22 -22 -22 -22 -22 -22 -22 -22 -22 -22 -22 -22 -22 -22 -22 -22 -22 -22 -22 -22 -23 -22 -22
-23 -24 -24 -23 -23 -23 -22 -23 -23 -23 -22 -23 -23 -23 -23 -23 -23 -23 -23 -23 -22 -22 -22 -22 -22 -22 -22 -23 -23 -23 -23 -23 -23 -23 -23 -23 -22 -23 -22 -23 -23 -23 -23 -23
-23 -23 -23 -23 -23 -23 -22 -23 -22 -23 -23 -23 -23 -23 -24 -24 -23 -23 -23 -23 -23 -23 -23 -23 -24 -24 -24 -24 -24 -24 -24 -23 -23 -23 -24 -23 -23 -23 -23 -23 -23 -23 -23 -23
-23 -23 -24 -23 -22 -22 -22 -23 -23 -23 -24 -24 -24 -24 -25 -25 -24 -24 -24 -24 -24 -23 -23 -23 -23 -25 -25 -25 -25 -24 -24 -24 -24 -24 -23 -23 -24 -24 -24 -23 -23 -23 -23 -23
-23 -23 -23 -24 -22 -24 -24 -23 -23 -23 -24 -23 -24 -26 -27 -27 -26 -27 -26 -25 -25 -24 -24 -24 -23 -24 -25 -25 -25 -25 -25 -24 -24 -24 -24 -23 -23 -23 -24 -23 -23 -23 -23 -24
-23 -23 -24 -24 -23 -23 -23 -23 -23 -23 -24 -24 -25 -26 -28 -27 -27 -27 -27 -26 -26 -26 -25 -25 -24 -24 -24 -25 -25 -25 -25 -25 -25 -24 -24 -24 -23 -23 -24 -24 -24 -24 -24 -24
-23 -24 -24 -23 -23 -23 -23 -23 -23 -24 -24 -25 -25 -27 -27 -28 -28 -28 -27 -27 -27 -27 -26 -26 -25 -25 -25 -25 -25 -26 -26 -25 -25 -25 -24 -24 -24 -24 -24 -24 -24 -25 -25 -25
Height
5748 5753 5760 5768 5772 5777 5779 5783 5789 5792 5796 5798 5800 5800 5807 5814 5812 5816 5820 5821 5823 5825 5826 5822 5826 5829 5830 5832 5832 5831 5830 5831 5831 5831 5831 5831 5830 5830 5827 5824 5821 5818 5817 5815
5733 5743 5752 5756 5761 5765 5770 5773 5779 5784 5786 5787 5790 5792 5796 5803 5805 5807 5810 5810 5813 5817 5817 5817 5819 5823 5823 5824 5824 5823 5823 5822 5822 5822 5821 5820 5820 5819 5819 5817 5814 5810 5807 5804
5723 5733 5738 5744 5750 5754 5760 5764 5769 5773 5775 5776 5776 5778 5786 5791 5795 5797 5799 5802 5804 5807 5810 5809 5810 5813 5815 5815 5814 5813 5814 5813 5813 5812 5811 5810 5809 5809 5808 5806 5804 5801 5798 5794
5713 5723 5728 5733 5740 5744 5748 5755 5758 5759 5760 5763 5765 5761 5776 5783 5787 5788 5789 5794 5796 5798 5799 5800 5803 5803 5804 5805 5804 5804 5804 5803 5802 5802 5801 5800 5799 5798 5797 5794 5792 5790 5787 5784
5709 5716 5718 5726 5734 5734 5739 5744 5746 5747 5746 5748 5754 5752 5762 5774 5778 5782 5781 5782 5784 5786 5789 5791 5792 5793 5794 5794 5794 5793 5793 5791 5791 5791 5790 5789 5787 5786 5784 5781 5779 5777 5773 5770
5696 5702 5706 5716 5721 5725 5728 5732 5733 5732 5733 5733 5744 5746 5749 5759 5768 5772 5772 5771 5774 5776 5778 5779 5779 5780 5781 5781 5781 5781 5780 5780 5779 5779 5778 5776 5775 5773 5772 5769 5766 5764 5761 5757
5689 5695 5701 5705 5710 5714 5716 5720 5720 5720 5722 5725 5733 5735 5744 5744 5752 5756 5759 5760 5761 5764 5765 5766 5767 5767 5767 5767 5767 5767 5766 5766 5766 5765 5763 5762 5760 5759 5757 5755 5753 5750 5747 5743
5678 5683 5691 5697 5703 5707 5709 5709 5711 5714 5713 5717 5718 5719 5731 5731 5739 5744 5746 5747 5749 5750 5752 5752 5752 5753 5753 5753 5753 5752 5752 5752 5752 5751 5750 5749 5747 5745 5743 5740 5738 5735 5732 5729
5670 5674 5680 5686 5689 5693 5696 5694 5704 5701 5701 5700 5703 5710 5715 5723 5725 5731 5733 5735 5737 5737 5737 5738 5738 5738 5738 5738 5738 5737 5738 5737 5737 5737 5735 5733 5731 5729 5727 5725 5722 5719 5716 5712
5658 5663 5668 5673 5676 5678 5682 5690 5688 5685 5686 5687 5693 5698 5705 5714 5716 5715 5723 5722 5722 5722 5723 5724 5724 5723 5723 5723 5723 5724 5724 5722 5722 5721 5720 5717 5715 5713 5710 5708 5705 5702 5699 5696
5649 5653 5659 5661 5665 5672 5674 5674 5676 5676 5677 5678 5680 5686 5696 5703 5704 5704 5702 5707 5709 5709 5708 5707 5707 5707 5707 5708 5708 5707 5708 5707 5706 5705 5703 5701 5699 5697 5694 5691 5688 5685 5683 5680
5641 5642 5646 5654 5657 5660 5659 5662 5662 5662 5669 5666 5667 5670 5688 5690 5691 5688 5689 5688 5690 5691 5691 5690 5689 5689 5690 5691 5692 5692 5691 5689 5688 5688 5687 5685 5683 5680 5676 5674 5671 5669 5666 5663
5632 5632 5635 5640 5644 5645 5647 5653 5655 5654 5653 5653 5657 5666 5685 5675 5674 5674 5675 5673 5674 5672 5670 5671 5674 5676 5675 5674 5673 5673 5672 5673 5672 5670 5669 5667 5665 5662 5660 5659 5656 5653 5650 5647
5619 5621 5624 5629 5636 5637 5639 5642 5643 5643 5640 5646 5642 5656 5665 5664 5665 5664 5658 5659 5659 5656 5655 5656 5659 5658 5656 5656 5656 5655 5655 5655 5654 5653 5651 5649 5648 5646 5644 5642 5640 5637 5633 5630
5610 5612 5617 5622 5623 5623 5626 5627 5632 5631 5635 5629 5639 5637 5653 5653 5649 5647 5647 5646 5642 5638 5640 5643 5641 5639 5638 5639 5639 5639 5637 5634 5634 5635 5634 5633 5631 5629 5627 5624 5622 5619 5617 5614
5601 5602 5606 5608 5613 5614 5613 5615 5620 5622 5624 5621 5625 5622 5641 5638 5632 5632 5635 5630 5624 5623 5625 5621 5621 5624 5625 5623 5621 5620 5618 5616 5615 5617 5617 5615 5613 5611 5610 5608 5605 5603 5601 5599
5592 5593 5597 5598 5601 5601 5599 5608 5610 5611 5612 5614 5608 5617 5621 5622 5624 5620 5613 5606 5607 5610 5605 5605 5607 5606 5606 5606 5604 5603 5600 5598 5598 5598 5597 5597 5596 5594 5592 5591 5590 5588 5586 5584
5583 5586 5587 5589 5590 5584 5595 5600 5601 5598 5600 5601 5597 5600 5604 5605 5605 5604 5595 5593 5593 5588 5588 5588 5589 5590 5591 5589 5587 5586 5585 5582 5581 5580 5579 5579 5579 5579 5578 5576 5575 5573 5572 5570
5576 5579 5580 5579 5580 5581 5585 5597 5595 5589 5586 5588 5586 5589 5588 5586 5582 5576 5586 5581 5574 5571 5570 5571 5573 5572 5572 5572 5571 5569 5568 5565 5566 5567 5566 5565 5564 5562 5562 5561 5560 5558 5557 5555
5570 5570 5570 5569 5568 5568 5580 5588 5584 5572 5558 5585 5578 5570 5570 5570 5558 5566 5574 5563 5561 5560 5558 5556 5557 5556 5556 5556 5554 5553 5553 5551 5552 5551 5549 5548 5547 5546 5545 5546 5545 5543 5542 5541
5560 5561 5560 5561 5556 5557 5572 5571 5566 5554 5564 5567 5563 5557 5554 5550 5550 5550 5551 5550 5547 5545 5542 5540 5540 5539 5538 5538 5538 5538 5538 5538 5537 5535 5534 5533 5532 5532 5531 5530 5530 5528 5528 5526
5553 5552 5552 5551 5547 5547 5558 5552 5550 5548 5542 5544 5544 5539 5532 5532 5532 5530 5528 5530 5531 5529 5528 5524 5524 5523 5522 5522 5522 5522 5522 5523 5522 5520 5520 5519 5518 5518 5517 5516 5515 5514 5512 5511
5544 5542 5540 5538 5541 5539 5538 5536 5531 5526 5523 5521 5517 5515 5508 5505 5506 5508 5507 5507 5509 5509 5509 5509 5509 5510 5509 5508 5507 5508 5507 5507 5506 5505 5506 5504 5503 5503 5502 5501 5499 5498 5496 5495
5533 5530 5527 5524 5533 5525 5524 5521 5517 5511 5507 5502 5495 5489 5485 5482 5483 5483 5482 5483 5484 5487 5488 5489 5489 5489 5490 5491 5491 5491 5490 5488 5487 5488 5488 5488 5486 5485 5484 5484 5483 5481 5479 5477
5521 5519 5516 5513 5517 5509 5512 5506 5502 5497 5490 5483 5475 5469 5466 5463 5463 5461 5463 5463 5463 5464 5465 5466 5466 5466 5467 5467 5468 5470 5469 5468 5469 5469 5470 5469 5467 5466 5465 5464 5463 5461 5460 5458
5512 5505 5502 5504 5500 5498 5502 5495 5488 5482 5477 5470 5463 5457 5450 5446 5444 5441 5442 5442 5442 5442 5444 5445 5444 5443 5442 5442 5443 5444 5445 5446 5449 5450 5450 5450 5448 5446 5444 5444 5443 5442 5440 5438
Wind_Speed
69 65 65 61 58 57 58 58 57 57 54 56 57 57 53 48 51 48 47 50 46 43 40 44 40 36 35 32 29 31 32 30 30 31 33 35 33 32 33 38 41 44 46 46
58 71 67 64 62 62 62 62 61 59 59 60 60 60 57 52 51 49 46 54 52 46 44 45 43 39 38 35 35 36 37 35 35 36 37 37 37 38 40 41 44 46 48 49
54 58 58 63 64 65 64 64 62 60 60 61 65 65 60 56 53 52 50 53 55 50 45 47 47 45 42 41 41 42 41 41 41 41 41 41 42 45 48 50 50 51 51 53
56 57 57 58 61 60 63 58 57 59 62 65 64 71 62 59 55 53 53 53 54 54 52 50 48 48 47 46 47 47 47 48 48 47 47 47 49 50 51 54 55 55 55 53
55 50 53 52 48 48 51 47 49 53 56 61 63 68 67 60 55 50 51 53 55 56 57 54 52 52 52 53 53 54 54 55 54 54 54 53 55 57 56 58 59 60 60 59
46 52 52 50 51 51 48 46 49 53 55 61 59 61 71 63 54 48 49 53 54 54 55 57 57 57 57 57 57 58 59 59 59 59 59 59 59 61 61 62 63 64 63 60
46 46 49 51 47 50 55 55 51 53 54 60 56 56 66 66 58 53 48 50 54 54 54 56 58 61 62 62 62 60 61 61 62 63 62 63 64 64 65 67 67 66 62 60
46 45 44 47 56 49 48 52 55 53 56 58 60 68 65 66 57 53 49 46 50 53 55 56 58 60 60 61 62 63 63 64 65 66 66 65 65 68 70 71 70 66 63 64
45 46 45 44 46 49 47 50 49 54 60 60 61 63 61 57 54 46 48 49 49 52 54 56 57 57 58 60 61 63 63 65 66 67 68 67 67 70 72 69 66 64 65 65
47 47 47 46 48 51 56 51 51 53 55 61 65 62 60 55 55 58 51 49 51 53 54 55 56 58 60 60 62 63 65 67 67 66 67 69 68 68 66 64 64 64 64 64
48 48 48 49 52 49 49 51 54 55 56 57 61 63 62 57 56 57 59 59 60 57 57 57 57 58 59 61 61 63 65 66 69 70 70 67 65 64 64 63 63 64 64 64
40 45 47 46 44 47 50 51 49 55 57 57 58 64 55 56 56 57 58 59 58 56 59 62 61 61 61 62 63 64 64 64 65 64 62 62 62 63 63 64 64 65 64 63
41 45 47 50 50 51 54 52 52 54 54 57 59 59 49 53 54 56 56 56 57 61 65 68 68 68 69 69 70 69 68 63 61 61 62 63 63 63 63 62 62 62 64 66
30 41 49 52 47 45 48 47 45 46 49 48 50 59 55 55 54 55 58 59 59 61 62 61 62 63 65 66 66 65 63 62 63 62 62 62 61 60 60 61 63 64 64 63
51 49 44 44 42 44 46 46 44 43 46 52 51 54 55 53 54 53 53 55 57 59 59 58 57 58 60 62 62 61 62 63 61 60 59 59 61 61 62 63 61 60 59 57
38 47 52 52 48 48 51 46 45 48 48 53 55 59 58 57 60 61 58 57 59 61 61 62 63 62 61 61 62 64 65 66 67 65 62 63 64 63 62 61 58 56 54 53
33 36 39 44 46 51 55 52 51 50 46 50 54 55 53 54 55 58 58 59 60 61 63 65 65 67 68 69 69 68 67 67 68 67 67 65 64 61 58 57 56 53 52 52
29 31 34 36 43 49 43 40 42 46 43 42 47 45 51 55 55 56 59 60 62 63 62 62 65 66 67 67 68 69 68 65 66 68 67 64 62 60 59 57 54 52 52 52
29 30 39 42 45 47 44 36 39 46 50 47 50 51 51 52 55 59 54 58 61 60 61 61 58 58 59 59 59 58 57 62 64 64 63 60 58 57 56 56 55 55 54 53
26 29 35 39 45 50 46 43 48 55 65 55 47 49 49 47 56 57 51 58 63 65 66 65 62 60 60 58 56 54 52 52 54 55 55 54 54 55 55 54 54 53 54 54
35 32 32 33 41 44 35 38 42 53 52 46 51 51 53 57 57 54 52 53 53 54 57 63 66 66 63 53 46 42 44 48 52 53 52 53 54 54 53 51 50 49 50 50
29 31 29 32 37 38 32 38 46 48 51 54 57 64 70 68 66 67 67 63 64 60 59 56 57 55 53 48 46 45 47 49 53 56 54 52 51 51 52 52 53 56 56 56
29 35 39 41 39 41 44 39 44 47 53 54 63 71 75 77 76 75 73 74 73 72 68 67 63 55 49 49 50 51 49 54 57 60 61 59 51 51 50 52 52 53 54 57
34 36 40 44 40 41 41 44 49 53 53 52 54 63 71 74 73 70 70 74 78 78 77 76 76 70 65 63 62 62 61 61 59 61 65 64 60 61 63 63 65 61 60 60
33 35 38 40 36 42 41 48 48 51 51 51 52 55 59 64 66 70 71 71 70 72 74 76 77 76 75 74 72 71 69 63 67 71 67 63 59 61 64 63 65 63 62 60
30 38 41 40 42 47 42 47 51 53 51 50 48 49 57 58 57 57 62 63 62 62 63 68 72 74 77 78 76 73 74 72 67 65 65 69 64 65 67 69 69 67 67 65
Wind_Direction
228 232 235 237 238 238 239 240 241 244 247 248 251 252 251 251 251 252 252 249 244 246 246 248 249 251 255 256 257 258 263 266 268 271 276 280 281 288 294 298 298 294 292 290
230 230 232 235 239 241 241 243 243 245 249 251 251 253 255 253 253 256 250 247 246 243 246 250 253 251 255 256 255 257 260 263 266 271 276 280 282 287 291 295 298 295 290 289
227 231 232 230 234 239 243 246 247 249 249 252 253 251 253 255 254 253 251 246 248 249 245 248 253 255 254 254 255 257 261 265 267 272 277 281 285 286 289 292 296 298 295 290
237 235 233 235 233 236 239 243 247 249 250 251 255 255 251 254 255 256 254 248 247 251 250 248 249 253 256 256 257 261 264 266 269 271 275 279 283 285 289 291 294 298 297 290
237 240 239 237 240 241 246 249 251 253 254 253 252 258 252 251 254 259 260 252 248 249 251 252 253 254 256 258 260 263 266 269 272 273 276 279 283 284 288 291 294 296 297 292
237 235 238 240 239 240 244 248 250 251 252 253 254 257 254 257 259 258 259 257 252 252 251 253 255 257 257 258 261 263 266 269 271 274 276 277 282 283 284 288 292 293 294 290
241 244 243 243 244 244 245 243 250 253 253 257 260 258 258 260 259 260 258 255 253 253 254 254 255 257 259 260 262 265 267 269 272 274 276 278 281 283 284 285 290 292 291 286
239 242 243 249 248 252 252 251 251 257 258 259 260 256 253 259 263 262 259 256 254 255 254 254 255 256 257 259 261 263 265 268 270 272 274 277 278 281 284 287 289 290 287 284
242 245 245 245 242 242 246 249 255 255 256 256 256 257 256 256 262 265 262 259 258 255 254 255 256 258 259 259 260 263 266 268 270 272 274 276 280 283 286 285 286 284 282 281
240 239 238 240 241 242 244 247 249 251 253 258 260 261 262 262 261 267 263 262 262 260 259 259 258 258 259 261 262 264 267 269 272 274 276 281 283 283 282 282 281 280 280 281
244 245 241 240 244 248 252 252 250 253 257 262 263 260 259 263 266 267 268 265 263 262 262 262 261 261 262 263 264 266 269 272 275 276 278 279 278 280 280 280 279 280 281 282
242 247 248 247 244 245 248 249 251 253 252 255 261 258 262 267 268 268 266 267 266 266 266 264 265 266 266 267 271 274 275 275 275 276 276 276 277 277 276 277 278 279 279 279
241 242 246 247 246 244 246 250 253 257 259 259 261 263 262 266 269 270 272 270 269 268 266 265 266 268 270 273 273 274 275 275 274 274 274 274 274 274 276 277 276 277 278 279
232 237 243 247 253 254 252 253 257 260 260 260 258 263 260 265 265 268 267 268 270 270 272 273 274 274 274 275 275 273 273 272 272 272 273 274 275 275 275 275 276 276 277 278
242 244 251 246 248 252 254 256 259 253 253 255 258 261 264 266 269 267 270 273 272 271 270 269 267 267 268 269 272 274 275 273 272 272 272 272 272 272 274 275 277 278 279 278
242 248 248 248 250 256 256 259 261 263 255 256 260 262 264 264 265 268 269 268 268 269 270 268 268 268 270 271 270 269 270 272 272 272 271 270 270 273 275 276 276 276 277 277
238 247 251 253 257 256 256 259 267 267 264 267 271 272 268 265 267 268 270 267 267 270 268 269 268 267 267 269 271 271 269 268 269 270 270 270 271 272 273 274 275 276 276 276
241 246 248 257 253 247 257 252 259 271 276 282 284 279 274 274 273 269 267 269 270 270 270 270 269 270 270 269 269 270 271 271 270 271 271 273 273 273 274 273 276 273 274 276
265 257 254 251 255 260 259 267 267 275 275 270 277 285 282 276 271 265 268 268 270 271 270 268 268 269 269 271 274 276 277 276 275 275 277 278 276 274 273 272 271 272 273 273
259 255 255 259 262 260 277 278 275 274 275 280 279 276 274 272 266 271 271 271 272 271 271 272 273 275 276 277 278 279 281 283 282 278 275 273 270 270 272 273 273 272 273 274
259 263 266 268 274 274 279 280 273 272 283 279 271 267 272 273 270 268 269 265 266 270 271 269 270 271 273 272 272 278 279 280 274 273 272 271 270 271 272 272 271 273 275 276
258 259 268 272 270 278 280 278 278 283 279 275 267 263 266 265 264 265 265 264 260 262 263 265 268 268 266 269 272 273 275 276 277 275 269 268 270 271 271 272 272 273 277 279
264 262 261 265 278 283 282 277 278 284 290 290 282 273 264 263 261 257 259 259 259 260 260 260 259 264 263 263 265 269 270 269 270 268 268 266 269 272 275 278 278 278 280 280
269 263 262 267 279 279 277 276 281 285 292 298 300 282 268 266 264 264 263 260 256 255 257 259 260 263 268 267 268 270 269 266 266 268 267 271 272 273 271 274 277 275 276 276
264 266 273 276 282 276 281 280 284 285 292 297 302 295 282 273 271 267 263 264 265 264 261 260 260 266 269 271 269 267 267 266 271 274 268 270 271 274 273 272 272 274 275 276
275 273 275 279 279 278 286 281 281 285 288 291 296 296 286 282 279 276 270 265 264 264 263 264 266 267 268 268 269 271 269 267 265 266 269 269 267 270 272 273 273 274 275 275